Location: Newark
(15.4608°S, 41.1635°W)
Time: 13:29:30
(UTC+00:00)

Envisat - Pass Details

Date: 24 June 2021
Orbit: 764 x 766 km, 98.1° (Epoch: 25 July)

Event Time Altitude Azimuth Distance (km) Brightness Sun altitude
Rises 08:33:45 0° 339° (NNW) 3,210 6.2 -9.1°
Reaches altitude 10° 08:36:46 10° 319° (NW) 2,292 5.3 -8.4°
Maximum altitude 08:40:04 18° 278° (W) 1,834 4.5 -7.7°
Drops below altitude 10° 08:43:23 10° 237° (WSW) 2,307 4.8 -6.9°
Enters shadow 08:44:36 - 228° (SW) 2,645 5.2 -6.6°
